Location: Bishop�s Knoyle
(51.0728°N, 2.1714°W)
Time: 06:19:54
(UTC+00:00)

ISS - Pass Details

Date: 30 September 2021
Orbit: 417 x 423 km, 51.6° (Epoch: 18 October)

Event Time Altitude Azimuth Distance (km) Brightness Sun altitude
Rises 20:37:33 0° 282° (WNW) 2,367 1.2 -26.4°
Reaches altitude 10° 20:40:03 10° 264° (W) 1,501 -0.3 -26.7°
Enters shadow 20:40:57 14° 251° (WSW) 1,266 -0.9 -26.8°
